TIANMU-1 18

Last updated on Mon Sep 21 2026 00:02:41 GMT+0000 (Coordinated Universal Time)

1 58703U 24004D 26263.58473109 .00003518 00000+0 13358-3 0 9998 2 58703 97.4666 89.7891 0005228 18.7588 341.3843 15.27487463150334
UTC large
Height (km)
Speed (km/s)
/
Latitude / Longitude
Inclination (degrees)
Orbital Period (minutes)
Azimuth
Elevation
Range (km)
Doppler Factor

Next 0 passes for location: London (51.5072 / 0.1276)

No passes found over London.
TIANMU-1 18